Погода в Полянах

Россия / Приморский край     45°26′47″N   134°42′52″E
темп.,
°C
ветер,
м/с
пор.,
м/с
влажн.,
%
обл.,
%
осадки,
мм/ч
давл.,
гПа
погр.,
м
23 апреля, пт
пт2301:00+9юв2147100 0.0 102413
04:00+8ююв1151100 0.0 102510
07:00+9юв214998 0.0 102530
10:00+16зюз2528100 0.0 1023780
13:00+17з3534100 0.0 1023942
16:00+17зсз5742100 0.0 10221469
19:00+14сз41064100 0.0 10231342
22:00+10з2380100 0.0 102374
24 апреля, сб
сб2401:00+10зсз2684100 0.0 1023404
04:00+9зсз3891100 0.1 1022904
07:00+6зсз3486100 1.0 1023447
10:00+4зсз3480100 1.3 1023659
13:00+5з3570100 0.4 10221018
16:00+8зсз5725100 0.4 10201614
19:00+7зсз38267 0.0 10191176
22:00+1зюз11430 0.0 102011
25 апреля, вс
вс2501:00−1юз21540 0.0 102015
04:00−2ююз226746 0.0 101927
07:000зюз21063100 0.0 1017366
10:00+2ссз71174100 0.5 10161347
13:00+6ссз71224100 0.3 10163337
16:00+6с61122100 0.3 10173480
19:00+5с410265 0.0 10192703
22:00−1юв11400 0.0 102210
26 апреля, пн
пн2601:00−2ююв21430 0.0 102211
04:00−2ю21440 0.0 102213
07:00−1ююз22410 0.0 102273
10:00+7з36255 0.0 10211090
13:00+11з45195 0.0 10181808
16:00+13з35195 0.0 10151827
19:00+11зюз24294 0.0 1015137
22:00+5юв224731 0.0 101614
27 апреля, вт
вт2701:00+3юв2253100 0.0 101723
04:00+3юв2253100 0.0 101633
07:00+4юв2355100 0.0 101562
10:00+12ю3539100 0.0 1012703
13:00+18ююз4633100 0.0 10101456
16:00+20ююз6103491 0.0 10072774
19:00+14юз71249100 0.0 10071460
22:00+11ююз41064100 0.1 10081116